User: anonymous   Login
Location: Unspecified
(0.0000°N, 0.0000°E)
Time: 21:55:34
(UTC+00:00)
Language:

PACE - Orbit

View from above orbital plane
View from above orbital plane
View from above satellite
View from above satellite

Ground track
Ground track

The orbit is defined by the following mean orbital elements,

1 58928U          26145.52835355 +.00000000 +00000-0 +76565-4 0 00002
2 58928  98.0952  77.1809 0001833  11.6714 348.4531 14.65521288    04
Epoch (UTC): 25 May 2026 12:40:49
Eccentricity: 0.0001833
inclination: 98.0952°
perigee height: 674 km
apogee height: 677 km
right ascension of ascending node: 77.1809°
argument of perigee: 11.6714°
revolutions per day: 14.65521288
mean anomaly at epoch: 348.4531°

The dashed part of the orbit path shows where the satellite is in the earth's shadow,  

DLR